Solidarnosc (vanuatu) — YJZC9 — position and weather

sailwx.info

Track history (hours):
 
Tides and Currents Weather Stations Pressure Air Temp Water Temp Dewpoint Dewpoint Depression Visibility Wind Speed Wind Dir Waves Ship Positions

Solidarnosc (vanuatu)

Last reported at 2014-Jul-25 07:33 UTC. Time now 2014-Jul-30 03:05 UTC.
Position N 25°32' W 079°38'.

Length 229 m; beam 32 m.

Type: Ship. MMSI: 576005000.

Date/timePositionNaut miles runAvg speedWind from/ knotsBaromVisibWave heightAir tempDewpointWater temp
2014-Jul-25 07:33N 25°32' W 079°38'12 9.9
2014-Jul-25 06:22N 25°42' W 079°31'810.3
2014-Jul-25 05:33N 25°49' W 079°26'1510.7
2014-Jul-25 04:11N 26°02' W 079°18'1111.1
2014-Jul-25 03:14N 26°11' W 079°12'7 9.9
2014-Jul-25 02:32N 26°13' W 079°05'1212.0
2014-Jul-25 01:33N 26°11' W 078°51'1412.3
2014-Jul-25 00:23N 26°07' W 078°36'1011.7
2014-Jul-24 23:31N 26°04' W 078°25'  
2014-Jul-16 12:31N 37°21' W 031°52'1111.8
2014-Jul-16 11:33N 37°22' W 031°38'1211.8
2014-Jul-16 10:33N 37°22' W 031°23'1211.7
2014-Jul-16 09:33N 37°23' W 031°08'1513.6
2014-Jul-16 08:25N 37°24' W 030°49'1612.4
2014-Jul-16 07:08N 37°25' W 030°29'712.0
2014-Jul-16 06:32N 37°26' W 030°20'1212.2
2014-Jul-16 05:32N 37°26' W 030°04'1412.0
2014-Jul-16 04:22N 37°27' W 029°47'911.5
2014-Jul-16 03:33N 37°27' W 029°35'1212.1
2014-Jul-16 02:33N 37°27' W 029°20'1211.8
2014-Jul-16 01:33N 37°27' W 029°05'1211.9
2014-Jul-16 00:33N 37°27' W 028°50'1312.6
2014-Jul-15 23:33N 37°28' W 028°34'1212.2
2014-Jul-15 22:34N 37°28' W 028°19'1212.1
2014-Jul-15 21:33N 37°28' W 028°04'1212.1
2014-Jul-15 20:33N 37°28' W 027°48'1212.0
2014-Jul-15 19:31N 37°29' W 027°33'1112.0
2014-Jul-15 18:34N 37°29' W 027°18'1211.8
2014-Jul-15 17:33N 37°29' W 027°03'1212.1
2014-Jul-15 16:33N 37°29' W 026°48'1211.9
2014-Jul-15 15:34N 37°30' W 026°33'1212.1
2014-Jul-15 14:34N 37°30' W 026°18'1211.9
2014-Jul-15 13:33N 37°30' W 026°03'1212.4
2014-Jul-15 12:33N 37°30' W 025°47'1212.5
2014-Jul-15 11:33N 37°30' W 025°31'1312.7
2014-Jul-15 10:33N 37°30' W 025°15'1312.9
2014-Jul-15 09:33N 37°30' W 024°59'1413.8
2014-Jul-15 08:33N 37°30' W 024°42'1413.9
2014-Jul-15 07:33N 37°31' W 024°24'  
Track history (hours):
 
Tides and Currents Weather Stations Pressure Air Temp Water Temp Dewpoint Dewpoint Depression Visibility Wind Speed Wind Dir Waves Ship Positions

Solidarnosc (vanuatu)

Last reported at 2014-Jul-25 07:33 UTC. Time now 2014-Jul-30 03:05 UTC.
Position N 25°32' W 079°38'.

Length 229 m; beam 32 m.

Type: Ship. MMSI: 576005000.

Date/timePositionNaut miles runAvg speedWind from/ knotsBaromVisibWave heightAir tempDewpointWater temp
2014-Jul-25 07:33N 25°32' W 079°38'12 9.9
2014-Jul-25 06:22N 25°42' W 079°31'810.3
2014-Jul-25 05:33N 25°49' W 079°26'1510.7
2014-Jul-25 04:11N 26°02' W 079°18'1111.1
2014-Jul-25 03:14N 26°11' W 079°12'7 9.9
2014-Jul-25 02:32N 26°13' W 079°05'1212.0
2014-Jul-25 01:33N 26°11' W 078°51'1412.3
2014-Jul-25 00:23N 26°07' W 078°36'1011.7
2014-Jul-24 23:31N 26°04' W 078°25'  
2014-Jul-16 12:31N 37°21' W 031°52'1111.8
2014-Jul-16 11:33N 37°22' W 031°38'1211.8
2014-Jul-16 10:33N 37°22' W 031°23'1211.7
2014-Jul-16 09:33N 37°23' W 031°08'1513.6
2014-Jul-16 08:25N 37°24' W 030°49'1612.4
2014-Jul-16 07:08N 37°25' W 030°29'712.0
2014-Jul-16 06:32N 37°26' W 030°20'1212.2
2014-Jul-16 05:32N 37°26' W 030°04'1412.0
2014-Jul-16 04:22N 37°27' W 029°47'911.5
2014-Jul-16 03:33N 37°27' W 029°35'1212.1
2014-Jul-16 02:33N 37°27' W 029°20'1211.8
2014-Jul-16 01:33N 37°27' W 029°05'1211.9
2014-Jul-16 00:33N 37°27' W 028°50'1312.6
2014-Jul-15 23:33N 37°28' W 028°34'1212.2
2014-Jul-15 22:34N 37°28' W 028°19'1212.1
2014-Jul-15 21:33N 37°28' W 028°04'1212.1
2014-Jul-15 20:33N 37°28' W 027°48'1212.0
2014-Jul-15 19:31N 37°29' W 027°33'1112.0
2014-Jul-15 18:34N 37°29' W 027°18'1211.8
2014-Jul-15 17:33N 37°29' W 027°03'1212.1
2014-Jul-15 16:33N 37°29' W 026°48'1211.9
2014-Jul-15 15:34N 37°30' W 026°33'1212.1
2014-Jul-15 14:34N 37°30' W 026°18'1211.9
2014-Jul-15 13:33N 37°30' W 026°03'1212.4
2014-Jul-15 12:33N 37°30' W 025°47'1212.5
2014-Jul-15 11:33N 37°30' W 025°31'1312.7
2014-Jul-15 10:33N 37°30' W 025°15'1312.9
2014-Jul-15 09:33N 37°30' W 024°59'1413.8
2014-Jul-15 08:33N 37°30' W 024°42'1413.9
2014-Jul-15 07:33N 37°31' W 024°24'  

Dump ship's entire track history